Find Milstar 3

NORAD ID: 25724 Int'l Des: 1999-023 Owner: AFSMC Country: US operational
MEOELLIPTICAL

Live Position

Loading 3D Globe...

About Milstar 3

Description loading...

Upcoming Passes

Passes for default location (London). Set your location on the main map for personalized predictions.

Altitude History

Loading altitude history...

Two-Line Element Set

1 25724U 99023A 26109.06591772 .00000091 00000-0 78861-3 0 9991
2 25724 28.2218 125.0009 2131618 346.5655 8.5700 9.37504213 66802
Epoch: Apr 19, 2026 • Age: 20 hours

Current Status

Altitude 3887.9 km
Velocity 5.98 km/s
Sub-Earth Point -20.21°S, 178.9°E
Launch Date Apr 30, 1999
Age 26.9 years
Type other

Technical Details

Classification Payload
Mass 4500.00 kg
Dry Mass 4200.00 kg
Total Mass 4500.00 kg
Length 15.50 m
Diameter 5.00 m
Span 35.00 m
Shape Truss + Ant
Manufacturer LMMS
Bus Type Milstar
Phase Status In Orbit
Owner/State AFSMC/US

Most Searched